Time,TemperatureF,DewpointF,PressureIn,WindDirection,WindDirectionDegrees,WindSpeedMPH,WindSpeedGustMPH,Humidity,HourlyPrecipIn,Conditions,Clouds,dailyrainin,SoftwareType,DateUTC
2013-05-31 00:14:00,39.9,33.0,30.15,North,8,0.0,1.0,77,0.00,,,0.00,weatherlink.com 1.10,2013-05-31 07:14:00,
2013-05-31 00:29:00,39.5,33.0,30.15,North,4,0.0,2.0,78,0.00,,,0.00,weatherlink.com 1.10,2013-05-31 07:29:00,
2013-05-31 00:44:00,39.3,33.0,30.16,NE,41,0.0,1.0,78,0.00,,,0.00,weatherlink.com 1.10,2013-05-31 07:44:00,
2013-05-31 00:59:00,39.2,33.0,30.16,ENE,58,0.0,1.0,79,0.00,,,0.00,weatherlink.com 1.10,2013-05-31 07:59:00,
2013-05-31 01:14:00,39.0,33.0,30.16,North,349,0.0,3.0,80,0.00,,,0.00,weatherlink.com 1.10,2013-05-31 08:14:00,
2013-05-31 01:29:00,39.0,34.0,30.16,NE,44,1.0,3.0,81,0.00,,,0.00,weatherlink.com 1.10,2013-05-31 08:29:00,
2013-05-31 01:44:00,38.9,34.0,30.17,NNE,31,0.0,4.0,82,0.00,,,0.00,weatherlink.com 1.10,2013-05-31 08:44:00,
2013-05-31 01:59:00,38.7,34.0,30.17,NNE,18,0.0,4.0,82,0.00,,,0.00,weatherlink.com 1.10,2013-05-31 08:59:00,
2013-05-31 02:14:00,38.1,34.0,30.18,East,94,0.0,1.0,84,0.00,,,0.00,weatherlink.com 1.10,2013-05-31 09:14:00,
2013-05-31 02:29:00,37.8,34.0,30.18,NNE,15,0.0,1.0,85,0.00,,,0.00,weatherlink.com 1.10,2013-05-31 09:29:00,
2013-05-31 02:44:00,37.6,33.0,30.18,ESE,119,0.0,0.0,84,0.00,,,0.00,weatherlink.com 1.10,2013-05-31 09:44:00,
2013-05-31 02:59:00,36.8,33.0,30.19,ESE,118,0.0,0.0,86,0.00,,,0.00,weatherlink.com 1.10,2013-05-31 09:59:00,
2013-05-31 03:14:00,37.3,34.0,30.19,NE,41,0.0,0.0,86,0.00,,,0.00,weatherlink.com 1.10,2013-05-31 10:14:00,
2013-05-31 03:29:00,37.5,33.0,30.19,NNW,338,0.0,2.0,85,0.00,,,0.00,weatherlink.com 1.10,2013-05-31 10:29:00,
2013-05-31 03:45:00,37.1,33.0,30.19,North,349,1.0,2.0,85,0.00,,,0.00,weatherlink.com 1.10,2013-05-31 10:45:00,
2013-05-31 04:00:00,37.1,33.0,30.20,ENE,59,0.0,1.0,85,0.00,,,0.00,weatherlink.com 1.10,2013-05-31 11:00:00,
2013-05-31 04:15:00,37.1,33.0,30.19,NE,40,0.0,2.0,85,0.00,,,0.00,weatherlink.com 1.10,2013-05-31 11:15:00,
2013-05-31 04:30:00,37.0,33.0,30.19,ESE,115,0.0,3.0,84,0.00,,,0.00,weatherlink.com 1.10,2013-05-31 11:30:00,
2013-05-31 04:45:00,36.7,33.0,30.20,East,92,1.0,1.0,85,0.00,,,0.00,weatherlink.com 1.10,2013-05-31 11:45:00,
2013-05-31 05:00:00,36.7,33.0,30.20,ESE,110,0.0,2.0,85,0.00,,,0.00,weatherlink.com 1.10,2013-05-31 12:00:00,
2013-05-31 05:15:00,36.4,32.0,30.20,East,87,0.0,1.0,85,0.00,,,0.00,weatherlink.com 1.10,2013-05-31 12:15:00,
2013-05-31 05:30:00,36.6,33.0,30.20,East,87,0.0,1.0,85,0.00,,,0.00,weatherlink.com 1.10,2013-05-31 12:30:00,
2013-05-31 05:45:00,36.4,32.0,30.21,East,87,0.0,0.0,84,0.00,,,0.00,weatherlink.com 1.10,2013-05-31 12:45:00,
2013-05-31 06:00:00,36.2,32.0,30.21,ESE,118,0.0,1.0,84,0.00,,,0.00,weatherlink.com 1.10,2013-05-31 13:00:00,
2013-05-31 06:15:00,36.8,32.0,30.21,ESE,120,0.0,0.0,83,0.00,,,0.00,weatherlink.com 1.10,2013-05-31 13:15:00,
2013-05-31 06:30:00,37.7,32.0,30.22,East,94,0.0,2.0,80,0.00,,,0.00,weatherlink.com 1.10,2013-05-31 13:30:00,
2013-05-31 06:45:00,38.8,32.0,30.22,East,89,1.0,1.0,76,0.00,,,0.00,weatherlink.com 1.10,2013-05-31 13:45:00,
2013-05-31 07:00:00,39.0,33.0,30.22,NNW,335,0.0,1.0,80,0.00,,,0.00,weatherlink.com 1.10,2013-05-31 14:00:00,
2013-05-31 07:15:00,39.9,34.0,30.22,NNW,335,0.0,0.0,79,0.00,,,0.00,weatherlink.com 1.10,2013-05-31 14:15:00,
2013-05-31 07:30:00,41.9,33.0,30.22,NNW,344,0.0,1.0,72,0.00,,,0.00,weatherlink.com 1.10,2013-05-31 14:30:00,
2013-05-31 07:45:00,43.1,33.0,30.22,NNW,327,1.0,3.0,68,0.00,,,0.00,weatherlink.com 1.10,2013-05-31 14:45:00,
2013-05-31 08:00:00,44.4,34.0,30.22,NW,314,0.0,2.0,67,0.00,,,0.00,weatherlink.com 1.10,2013-05-31 15:00:00,
2013-05-31 08:15:00,44.5,34.0,30.22,SW,216,2.0,4.0,66,0.00,,,0.00,weatherlink.com 1.10,2013-05-31 15:15:00,
2013-05-31 08:30:00,45.2,34.0,30.23,WSW,246,1.0,5.0,64,0.00,,,0.00,weatherlink.com 1.10,2013-05-31 15:30:00,
2013-05-31 08:45:00,45.7,34.0,30.22,NW,312,1.0,3.0,64,0.00,,,0.00,weatherlink.com 1.10,2013-05-31 15:45:00,
2013-05-31 09:00:00,46.4,34.0,30.23,West,273,1.0,5.0,62,0.00,,,0.00,weatherlink.com 1.10,2013-05-31 16:00:00,
2013-05-31 09:15:00,47.4,34.0,30.22,WNW,294,1.0,5.0,61,0.00,,,0.00,weatherlink.com 1.10,2013-05-31 16:15:00,
2013-05-31 09:30:00,48.8,35.0,30.22,SSW,198,0.0,4.0,60,0.00,,,0.00,weatherlink.com 1.10,2013-05-31 16:30:00,
2013-05-31 09:45:00,49.8,35.0,30.22,SW,231,1.0,6.0,58,0.00,,,0.00,weatherlink.com 1.10,2013-05-31 16:45:00,
2013-05-31 10:00:00,50.3,35.0,30.22,SE,125,4.0,6.0,57,0.00,,,0.00,weatherlink.com 1.10,2013-05-31 17:00:00,
2013-05-31 10:16:00,51.5,35.0,30.22,NW,325,1.0,4.0,54,0.00,,,0.00,weatherlink.com 1.10,2013-05-31 17:16:00,
2013-05-31 10:31:00,51.7,34.0,30.22,WSW,248,2.0,7.0,52,0.00,,,0.00,weatherlink.com 1.10,2013-05-31 17:31:00,
2013-05-31 10:46:00,52.1,34.0,30.21,South,173,0.0,5.0,50,0.00,,,0.00,weatherlink.com 1.10,2013-05-31 17:46:00,
2013-05-31 11:01:00,52.2,33.0,30.21,WNW,297,3.0,7.0,49,0.00,,,0.00,weatherlink.com 1.10,2013-05-31 18:01:00,
2013-05-31 11:16:00,53.6,34.0,30.21,SW,228,3.0,5.0,48,0.00,,,0.00,weatherlink.com 1.10,2013-05-31 18:16:00,
2013-05-31 11:31:00,54.5,33.0,30.21,SSW,211,1.0,5.0,45,0.00,,,0.00,weatherlink.com 1.10,2013-05-31 18:31:00,
2013-05-31 11:46:00,55.2,30.0,30.20,SSW,197,1.0,8.0,39,0.00,,,0.00,weatherlink.com 1.10,2013-05-31 18:46:00,
2013-05-31 12:01:00,55.8,28.0,30.20,WSW,240,1.0,9.0,34,0.00,,,0.00,weatherlink.com 1.10,2013-05-31 19:01:00,
2013-05-31 12:16:00,56.2,29.0,30.20,WSW,255,3.0,7.0,35,0.00,,,0.00,weatherlink.com 1.10,2013-05-31 19:16:00,
2013-05-31 12:31:00,56.7,30.0,30.19,West,273,7.0,8.0,36,0.00,,,0.00,weatherlink.com 1.10,2013-05-31 19:31:00,
2013-05-31 12:46:00,57.9,27.0,30.19,SSW,193,3.0,7.0,31,0.00,,,0.00,weatherlink.com 1.10,2013-05-31 19:46:00,
2013-05-31 13:01:00,58.9,32.0,30.19,NW,314,2.0,7.0,36,0.00,,,0.00,weatherlink.com 1.10,2013-05-31 20:01:00,
2013-05-31 13:16:00,58.4,27.0,30.19,SW,229,4.0,10.0,30,0.00,,,0.00,weatherlink.com 1.10,2013-05-31 20:16:00,
2013-05-31 13:31:00,58.9,32.0,30.18,SSE,155,4.0,7.0,37,0.00,,,0.00,weatherlink.com 1.10,2013-05-31 20:31:00,
2013-05-31 13:46:00,60.3,31.0,30.18,SSW,197,3.0,7.0,33,0.00,,,0.00,weatherlink.com 1.10,2013-05-31 20:46:00,
2013-05-31 14:01:00,61.8,33.0,30.18,NNW,347,2.0,6.0,34,0.00,,,0.00,weatherlink.com 1.10,2013-05-31 21:01:00,
2013-05-31 14:16:00,61.4,34.0,30.18,NNE,19,4.0,10.0,36,0.00,,,0.00,weatherlink.com 1.10,2013-05-31 21:16:00,
2013-05-31 14:31:00,62.2,36.0,30.17,NNW,330,3.0,7.0,38,0.00,,,0.00,weatherlink.com 1.10,2013-05-31 21:31:00,
2013-05-31 14:46:00,62.6,36.0,30.17,NNW,331,3.0,9.0,38,0.00,,,0.00,weatherlink.com 1.10,2013-05-31 21:46:00,
2013-05-31 15:01:00,63.3,36.0,30.17,West,269,9.0,9.0,36,0.00,,,0.00,weatherlink.com 1.10,2013-05-31 22:01:00,
2013-05-31 15:16:00,62.6,35.0,30.16,WNW,295,6.0,8.0,36,0.00,,,0.00,weatherlink.com 1.10,2013-05-31 22:16:00,
2013-05-31 15:31:00,63.0,38.0,30.16,WNW,285,5.0,12.0,40,0.00,,,0.00,weatherlink.com 1.10,2013-05-31 22:31:00,
2013-05-31 15:46:00,62.8,35.0,30.16,WSW,253,5.0,11.0,36,0.00,,,0.00,weatherlink.com 1.10,2013-05-31 22:46:00,
2013-05-31 16:01:00,63.7,36.0,30.16,WNW,295,4.0,8.0,36,0.00,,,0.00,weatherlink.com 1.10,2013-05-31 23:01:00,
2013-05-31 16:16:00,63.7,34.0,30.15,NNE,13,0.0,10.0,33,0.00,,,0.00,weatherlink.com 1.10,2013-05-31 23:16:00,
2013-05-31 16:31:00,64.0,34.0,30.16,WNW,297,3.0,10.0,33,0.00,,,0.00,weatherlink.com 1.10,2013-05-31 23:31:00,
2013-05-31 16:46:00,64.6,34.0,30.16,West,281,3.0,8.0,32,0.00,,,0.00,weatherlink.com 1.10,2013-05-31 23:46:00,
2013-05-31 17:01:00,65.0,34.0,30.15,NW,320,2.0,6.0,31,0.00,,,0.00,weatherlink.com 1.10,2013-06-01 00:01:00,
2013-05-31 17:16:00,64.8,33.0,30.15,NW,311,3.0,6.0,31,0.00,,,0.00,weatherlink.com 1.10,2013-06-01 00:16:00,
2013-05-31 17:32:00,65.3,33.0,30.15,NW,307,4.0,8.0,30,0.00,,,0.00,weatherlink.com 1.10,2013-06-01 00:32:00,
2013-05-31 17:46:00,65.4,31.0,30.14,NW,312,5.0,7.0,28,0.00,,,0.00,weatherlink.com 1.10,2013-06-01 00:46:00,
2013-05-31 18:01:00,65.4,33.0,30.14,North,1,5.0,9.0,30,0.00,,,0.00,weatherlink.com 1.10,2013-06-01 01:01:00,
2013-05-31 18:16:00,65.5,30.0,30.14,NW,307,2.0,6.0,26,0.00,,,0.00,weatherlink.com 1.10,2013-06-01 01:16:00,
2013-05-31 18:32:00,65.8,30.0,30.14,NNW,332,2.0,7.0,26,0.00,,,0.00,weatherlink.com 1.10,2013-06-01 01:32:00,
2013-05-31 18:47:00,65.4,31.0,30.14,NNW,332,2.0,6.0,28,0.00,,,0.00,weatherlink.com 1.10,2013-06-01 01:47:00,
2013-05-31 19:02:00,65.1,31.0,30.14,NNW,327,5.0,8.0,28,0.00,,,0.00,weatherlink.com 1.10,2013-06-01 02:02:00,
2013-05-31 19:17:00,64.4,31.0,30.14,NNW,327,3.0,8.0,29,0.00,,,0.00,weatherlink.com 1.10,2013-06-01 02:17:00,
2013-05-31 19:32:00,63.9,31.0,30.14,NNE,18,5.0,7.0,29,0.00,,,0.00,weatherlink.com 1.10,2013-06-01 02:32:00,
2013-05-31 19:47:00,63.4,30.0,30.14,WNW,290,3.0,7.0,28,0.00,,,0.00,weatherlink.com 1.10,2013-06-01 02:47:00,
2013-05-31 20:02:00,62.9,30.0,30.14,NNW,334,3.0,5.0,29,0.00,,,0.00,weatherlink.com 1.10,2013-06-01 03:02:00,
2013-05-31 20:17:00,60.0,30.0,30.13,NNW,335,2.0,5.0,32,0.00,,,0.00,weatherlink.com 1.10,2013-06-01 03:17:00,
2013-05-31 20:32:00,58.4,28.0,30.13,ENE,66,0.0,3.0,32,0.00,,,0.00,weatherlink.com 1.10,2013-06-01 03:32:00,
2013-05-31 20:47:00,56.8,31.0,30.13,East,84,0.0,3.0,38,0.00,,,0.00,weatherlink.com 1.10,2013-06-01 03:47:00,
2013-05-31 21:02:00,55.7,34.0,30.13,North,349,0.0,3.0,44,0.00,,,0.00,weatherlink.com 1.10,2013-06-01 04:02:00,
2013-05-31 21:17:00,55.1,33.0,30.13,East,82,0.0,4.0,44,0.00,,,0.00,weatherlink.com 1.10,2013-06-01 04:17:00,
2013-05-31 21:32:00,54.3,34.0,30.14,NNW,329,0.0,3.0,46,0.00,,,0.00,weatherlink.com 1.10,2013-06-01 04:32:00,
2013-05-31 21:47:00,53.0,34.0,30.14,NNE,25,0.0,2.0,49,0.00,,,0.00,weatherlink.com 1.10,2013-06-01 04:47:00,
2013-05-31 22:02:00,52.6,34.0,30.14,NNE,12,0.0,1.0,50,0.00,,,0.00,weatherlink.com 1.10,2013-06-01 05:02:00,
2013-05-31 22:17:00,52.6,34.0,30.15,North,9,0.0,1.0,49,0.00,,,0.00,weatherlink.com 1.10,2013-06-01 05:17:00,
2013-05-31 22:32:00,52.1,34.0,30.15,North,5,0.0,1.0,51,0.00,,,0.00,weatherlink.com 1.10,2013-06-01 05:32:00,
2013-05-31 22:47:00,52.1,34.0,30.15,NW,314,0.0,5.0,51,0.00,,,0.00,weatherlink.com 1.10,2013-06-01 05:47:00,
2013-05-31 23:02:00,51.9,34.0,30.15,East,88,0.0,1.0,51,0.00,,,0.00,weatherlink.com 1.10,2013-06-01 06:02:00,
2013-05-31 23:17:00,51.2,35.0,30.16,East,88,0.0,1.0,54,0.00,,,0.00,weatherlink.com 1.10,2013-06-01 06:17:00,
2013-05-31 23:32:00,50.7,35.0,30.16,NE,40,0.0,1.0,55,0.00,,,0.00,weatherlink.com 1.10,2013-06-01 06:32:00,
2013-05-31 23:47:00,49.7,35.0,30.15,NE,40,0.0,0.0,57,0.00,,,0.00,weatherlink.com 1.10,2013-06-01 06:47:00,